| time (UTC) | temp C | wind direction | speed KPH | gust KPH | rain 1hr cm | rain 24hr cm | rain mn cm | humidity % | barometer mb |
| 20260507014547 | 6 | 281 | 0.0 | 1.6 | 0.00 | 0.00 | 0.00 | 86 | 1013.6 |
| 20260507013044 | 6 | 281 | 0.0 | 4.8 | 0.00 | 0.00 | 0.00 | 86 | 1013.5 |
| 20260507011541 | 6 | 279 | 0.0 | 3.2 | 0.00 | 0.00 | 0.00 | 85 | 1013.5 |
| 20260507010041 | 6 | 288 | 0.0 | 3.2 | 0.00 | 0.00 | 0.00 | 86 | 1013.4 |
| 20260507004530 | 6 | 298 | 0.0 | 4.8 | 0.00 | 0.00 | 0.00 | 86 | 1013.4 |
| 20260507003029 | 6 | 290 | 1.6 | 4.8 | 0.00 | 0.00 | 0.00 | 86 | 1013.3 |
| 20260507001537 | 6 | 259 | 0.0 | 4.8 | 0.00 | 0.00 | 0.00 | 85 | 1013.3 |
| 20260507000031 | 6 | 327 | 0.0 | 4.8 | 0.00 | 0.00 | 0.00 | 85 | 1013.4 |
| 20260506234523 | 6 | 19 | 0.0 | 4.8 | 0.00 | 0.00 | 0.00 | 85 | 1013.4 |
| 20260506233022 | 6 | 301 | 0.0 | 6.4 | 0.00 | 0.00 | 0.00 | 84 | 1013.3 |
| 20260506231520 | 7 | 294 | 0.0 | 3.2 | 0.00 | 0.00 | 0.00 | 84 | 1013.3 |
| 20260506230019 | 7 | 302 | 0.0 | 3.2 | 0.00 | 0.00 | 0.00 | 84 | 1013.4 |
| 20260506224517 | 7 | 302 | 0.0 | 4.8 | 0.00 | 0.00 | 0.00 | 84 | 1013.3 |
| 20260506223014 | 7 | 266 | 1.6 | 6.4 | 0.00 | 0.00 | 0.00 | 83 | 1013.2 |
| 20260506221512 | 7 | 326 | 1.6 | 6.4 | 0.00 | 0.00 | 0.00 | 82 | 1013.1 |
| 20260506220008 | 7 | 328 | 1.6 | 4.8 | 0.00 | 0.00 | 0.00 | 81 | 1013.1 |
| 20260506214506 | 8 | 319 | 1.6 | 4.8 | 0.00 | 0.00 | 0.00 | 80 | 1013.1 |
| 20260506213004 | 8 | 323 | 1.6 | 6.4 | 0.00 | 0.00 | 0.00 | 79 | 1012.9 |
| 20260506211501 | 8 | 334 | 1.6 | 8.0 | 0.00 | 0.00 | 0.00 | 78 | 1012.8 |
| 20260506210058 | 9 | 346 | 0.0 | 6.4 | 0.00 | 0.00 | 0.00 | 76 | 1012.7 |
| 20260506204558 | 9 | 344 | 0.0 | 6.4 | 0.00 | 0.00 | 0.00 | 75 | 1012.6 |
| 20260506203058 | 10 | 340 | 0.0 | 4.8 | 0.00 | 0.00 | 0.00 | 74 | 1012.6 |
| 20260506201556 | 10 | 325 | 1.6 | 8.0 | 0.00 | 0.00 | 0.00 | 73 | 1012.5 |
| 20260506200054 | 10 | 309 | 0.0 | 6.4 | 0.00 | 0.00 | 0.00 | 72 | 1012.4 |
| 20260506194553 | 10 | 336 | 1.6 | 6.4 | 0.00 | 0.00 | 0.00 | 71 | 1012.2 |
| 20260506193056 | 11 | 22 | 1.6 | 6.4 | 0.00 | 0.00 | 0.00 | 71 | 1012.0 |
| 20260506191551 | 11 | 309 | 1.6 | 8.0 | 0.00 | 0.00 | 0.00 | 72 | 1011.8 |
| 20260506190046 | 11 | 315 | 1.6 | 6.4 | 0.00 | 0.00 | 0.00 | 73 | 1011.4 |
| 20260506184544 | 11 | 119 | 0.0 | 3.2 | 0.00 | 0.00 | 0.00 | 73 | 1011.4 |
| 20260506183043 | 11 | 119 | 0.0 | 1.6 | 0.00 | 0.00 | 0.00 | 72 | 1011.2 |
| 20260506181555 | 11 | 119 | 0.0 | 3.2 | 0.00 | 0.00 | 0.00 | 71 | 1011.0 |
| 20260506180038 | 11 | 119 | 0.0 | 4.8 | 0.00 | 0.00 | 0.00 | 71 | 1010.9 |
| 20260506174538 | 11 | 119 | 0.0 | 4.8 | 0.00 | 0.00 | 0.00 | 71 | 1010.7 |
| 20260506173102 | 12 | 119 | 1.6 | 4.8 | 0.00 | 0.00 | 0.00 | 69 | 1010.5 |
| 20260506171541 | 12 | 121 | 0.0 | 4.8 | 0.00 | 0.00 | 0.00 | 68 | 1010.5 |
| 20260506170050 | 12 | 95 | 0.0 | 3.2 | 0.00 | 0.00 | 0.00 | 67 | 1010.3 |
| 20260506164532 | 12 | 95 | 0.0 | 1.6 | 0.00 | 0.00 | 0.00 | 65 | 1010.4 |
| 20260506163034 | 12 | 95 | 1.6 | 4.8 | 0.00 | 0.00 | 0.00 | 65 | 1010.3 |
| 20260506161529 | 12 | 86 | 0.0 | 4.8 | 0.00 | 0.00 | 0.00 | 66 | 1010.3 |
| 20260506160025 | 12 | 88 | 0.0 | 4.8 | 0.00 | 0.00 | 0.00 | 67 | 1010.3 |
| 20260506154505 | 12 | 91 | 1.6 | 9.7 | 0.00 | 0.00 | 0.00 | 65 | 1010.4 |
| 20260506153004 | 12 | 82 | 1.6 | 4.8 | 0.00 | 0.00 | 0.00 | 66 | 1010.4 |
| 20260506151507 | 12 | 78 | 3.2 | 9.7 | 0.00 | 0.00 | 0.00 | 64 | 1010.2 |
| 20260506150005 | 12 | 143 | 1.6 | 6.4 | 0.00 | 0.00 | 0.00 | 65 | 1010.2 |
| 20260506144501 | 12 | 86 | 4.8 | 11.3 | 0.00 | 0.00 | 0.00 | 63 | 1010.1 |
| 20260506143100 | 12 | 88 | 3.2 | 12.9 | 0.00 | 0.00 | 0.00 | 62 | 1010.1 |
| 20260506141602 | 12 | 87 | 1.6 | 14.5 | 0.00 | 0.00 | 0.00 | 63 | 1010.1 |
| 20260506140058 | 12 | 74 | 4.8 | 12.9 | 0.00 | 0.00 | 0.00 | 61 | 1010.1 |
| 20260506134557 | 12 | 93 | 3.2 | 19.3 | 0.00 | 0.00 | 0.00 | 62 | 1010.1 |
| 20260506133114 | 12 | 80 | 6.4 | 22.5 | 0.00 | 0.00 | 0.00 | 61 | 1010.1 |
| 20260506131553 | 11 | 93 | 4.8 | 19.3 | 0.00 | 0.00 | 0.00 | 62 | 1010.1 |
| 20260506130110 | 11 | 77 | 9.7 | 24.1 | 0.00 | 0.00 | 0.00 | 63 | 1010.1 |
| 20260506124552 | 11 | 96 | 4.8 | 14.5 | 0.00 | 0.00 | 0.00 | 65 | 1010.1 |
| 20260506123051 | 11 | 215 | 1.6 | 12.9 | 0.00 | 0.00 | 0.00 | 64 | 1010.0 |
| 20260506121550 | 11 | 107 | 3.2 | 16.1 | 0.00 | 0.00 | 0.00 | 64 | 1009.9 |
| 20260506120049 | 11 | 101 | 4.8 | 12.9 | 0.00 | 0.00 | 0.00 | 67 | 1009.8 |
| 20260506114550 | 11 | 92 | 4.8 | 20.9 | 0.00 | 0.00 | 0.00 | 67 | 1009.8 |
| 20260506113048 | 11 | 90 | 6.4 | 17.7 | 0.00 | 0.00 | 0.00 | 63 | 1009.8 |
| 20260506111547 | 11 | 96 | 6.4 | 17.7 | 0.00 | 0.00 | 0.00 | 61 | 1009.7 |
| 20260506110047 | 11 | 98 | 4.8 | 19.3 | 0.00 | 0.00 | 0.00 | 64 | 1009.7 |
| 20260506104607 | 11 | 66 | 3.2 | 12.9 | 0.00 | 0.00 | 0.00 | 68 | 1009.5 |
| 20260506103042 | 11 | 86 | 3.2 | 24.1 | 0.00 | 0.00 | 0.00 | 65 | 1009.6 |
| 20260506101541 | 11 | 71 | 6.4 | 29.0 | 0.00 | 0.00 | 0.00 | 62 | 1009.6 |
| 20260506100043 | 11 | 88 | 9.7 | 30.6 | 0.00 | 0.00 | 0.00 | 57 | 1009.5 |
| 20260506094538 | 11 | 94 | 6.4 | 20.9 | 0.00 | 0.00 | 0.00 | 59 | 1009.4 |
| 20260506093035 | 11 | 67 | 8.0 | 29.0 | 0.00 | 0.00 | 0.00 | 61 | 1009.3 |
| 20260506091534 | 11 | 39 | 3.2 | 12.9 | 0.00 | 0.00 | 0.00 | 65 | 1009.3 |
| 20260506090040 | 11 | 123 | 1.6 | 12.9 | 0.00 | 0.00 | 0.00 | 68 | 1009.2 |
| 20260506084528 | 11 | 111 | 6.4 | 19.3 | 0.00 | 0.00 | 0.00 | 70 | 1009.1 |
| 20260506083035 | 10 | 59 | 4.8 | 17.7 | 0.00 | 0.00 | 0.00 | 73 | 1009.1 |
| 20260506081520 | 10 | 54 | 4.8 | 16.1 | 0.00 | 0.00 | 0.00 | 74 | 1009.0 |
| 20260506073015 | 10 | 113 | 0.0 | 9.7 | 0.00 | 0.00 | 0.00 | 78 | 1008.8 |
| 20260506071513 | 10 | 58 | 3.2 | 8.0 | 0.00 | 0.00 | 0.00 | 78 | 1008.8 |
| 20260506061504 | 9 | 46 | 3.2 | 9.7 | 0.00 | 0.00 | 0.00 | 80 | 1008.5 |
| 20260506044608 | 8 | 83 | 0.0 | 6.4 | 0.00 | 0.00 | 0.00 | 84 | 1008.2 |
| 20260506043056 | 8 | 327 | 1.6 | 4.8 | 0.00 | 0.00 | 0.00 | 84 | 1008.2 |
| 20260506041553 | 8 | 331 | 0.0 | 6.4 | 0.00 | 0.00 | 0.00 | 84 | 1008.3 |
| 20260506040051 | 8 | 5 | 0.0 | 8.0 | 0.00 | 0.00 | 0.00 | 84 | 1008.3 |
| 20260506034549 | 8 | 360 | 1.6 | 6.4 | 0.00 | 0.00 | 0.00 | 84 | 1008.4 |
| 20260506033046 | 9 | 326 | 1.6 | 8.0 | 0.00 | 0.00 | 0.00 | 84 | 1008.4 |
| 20260506031547 | 9 | 201 | 0.0 | 4.8 | 0.00 | 0.00 | 0.00 | 84 | 1008.5 |
| 20260506030041 | 9 | 296 | 0.0 | 6.4 | 0.00 | 0.00 | 0.00 | 84 | 1008.7 |
| 20260506024545 | 9 | 346 | 0.0 | 4.8 | 0.00 | 0.00 | 0.00 | 83 | 1008.8 |
| 20260506023040 | 9 | 355 | 1.6 | 6.4 | 0.00 | 0.00 | 0.00 | 83 | 1008.9 |
| 20260506021552 | 9 | 23 | 1.6 | 4.8 | 0.00 | 0.00 | 0.00 | 82 | 1008.9 |
| 20260506020037 | 9 | 75 | 0.0 | 8.0 | 0.00 | 0.00 | 0.00 | 82 | 1009.0 |